ジャック彗星

C/2014 E2 ( Jacques )

English version
Home page
Updated on June 11, 2016

---------------------------------------------------------------------

・ プロフィール

発見日 2014年3月13日
発見光度 14.7等
発見者 Cristovao Jacques (SONEAR Observatory near Oliveira, Brazil)

・ 写真集

・ 軌道要素

Epoch 2014 July 2.0 TT = JDT 2456840.5
T 2014 July 2.51570 TT                                  MPCW
q   0.6639310            (2000.0)            P               Q
z  +0.0014614      Peri.  344.04135     +0.32236742     +0.88590997
                   Node    56.39125     +0.90640511     -0.39047951
e   0.9990298      Incl.  156.39209     +0.27296341     +0.25037828
From 4583 observations 2014 Mar. 13-2015 June 8, mean residual 0".5.
     Nongravitational parameters A1 = +2.09, A2 = -0.2798.

・ 星図

・ 光度変化

        m1 = 6.0 + 5 logΔ + 15.0 log r  [   ,-63]  (              〜2014年 4月30日)
        m1 = 6.7 + 5 logΔ + 10.0 log r  [-63, 63]  (2014年 4月30日〜2014年 9月 3日)
        m1 = 6.0 + 5 logΔ + 15.0 log r  [ 63,   ]  (2014年 9月 3日〜              )

---------------------------------------------------------------------

軌道要素はM.P.E.C. 2016-D32に掲載されたものです。
星図はステラナビゲータ Ver.8 (アストロアーツ) で作成したものです。
光度グラフはComet for Windowsで作成したものです。

---------------------------------------------------------------------

Copyright(C) Seiichi Yoshida (comet@aerith.net). All rights reserved.